Regional Weather Roundup
Issued by NWS Cleveland, OH

Home | Current Version | Previous Version | Graphics & Text | Print | Product List | Glossary On
Versions: 1 2 3 4 5 6 7 8 9 10 11 12 13 14 15 16 17 18 19 20 21 22 23 24 25 26 27 28 29 30 31 32 33 34 35 36 37 38 39 40 41 42 43 44 45 46 47 48 49 50
000
ASUS41 KCLE 180500
RWRCLE
OHIO REGIONAL WEATHER ROUNDUP
NATIONAL WEATHER SERVICE WILMINGTON, OH
100 AM EDT THU SEP 18 2014

NOTE: "FAIR" INDICATES FEW OR NO CLOUDS BELOW 12,000 FEET WITH NO
SIGNIFICANT WEATHER AND/OR OBSTRUCTIONS TO VISIBILITY.

OHZ001>008-015>018-024>027-034-035-043-044-180600-
   NORTHWEST OHIO

CITY           SKY/WX    TMP DP  RH WIND       PRES   REMARKS
DEFIANCE       CLEAR     49  46  90 CALM      30.03S
FINDLAY        CLEAR     50  46  86 CALM      30.01S
TOLEDO EXPRESS CLEAR     49  47  93 CALM      30.02S
TOLEDO METCALF CLOUDY    55  47  74 CALM      30.02S
LIMA           CLEAR     50  47  89 CALM      30.02S
$$

OHZ009>014-019>023-028>033-038-089-180600-
   NORTHEAST OHIO

CITY           SKY/WX    TMP DP  RH WIND       PRES   REMARKS
CLE-HOPKINS    PTCLDY    53  49  86 CALM      30.03S
CLE-LAKEFRONT  CLEAR     57  50  77 SE3       30.00S
CUY CO. ARPT   NOT AVBL
LORAIN-ELYRIA  CLEAR     53  49  86 W3        30.02S
ASHTABULA      FOG       45  44  97 CALM      30.02S VSB 1
AKRON-CANTON   CLEAR     55  48  77 CALM      30.01S
WOOSTER        NOT AVBL
MANSFIELD      CLEAR     52  49  89 CALM      30.02S
YOUNGSTOWN     PTCLDY    48  47  96 CALM      30.01F
$$

OHZ042-051>053-060>062-070>072-077>081-180600-
  SOUTHWEST OHIO

CITY           SKY/WX    TMP DP  RH WIND       PRES   REMARKS
CINC-COVINGTON PTCLDY    53  47  79 CALM      30.02S
CINC-LUNKEN    CLEAR     51  50  96 CALM      30.03R
HAMILTON       CLEAR     49  48  97 CALM      30.03S FOG
DAYTON         NOT AVBL
WRIGHT-PAT AFB NOT AVBL
DAYTON GENERAL CLEAR     51  49  92 CALM      30.02S
WILMINGTON     CLEAR     50  47  89 NE3       30.02S
$$

OHZ036-037-039>041-045>050-054>059-063>069-073>076-082>088-180600-
  CENTRAL AND SOUTHEAST OHIO

CITY           SKY/WX    TMP DP  RH WIND       PRES   REMARKS
COLUMBUS       PTCLDY    54  48  80 CALM      30.01S
OSU AIRPORT    CLEAR     53  47  79 CALM      30.01S
BOLTON FIELD   NOT AVBL
RICKENBACK AFB NOT AVBL
NEWARK         MOCLDY    48  46  93 CALM      30.01S
MARION         CLEAR     51  46  83 CALM      30.02S
LANCASTER      CLEAR     47  45  93 CALM      30.01S FOG
ZANESVILLE     MOCLDY    52  48  86 CALM      30.00F
NEW PHILLY     NOT AVBL
$$



USA.gov is the U.S. government's official web portal to all federal, state and local government web resources and services.